SONATE
1 44400U 19038Q   25132.59478750  .00174096  00000-0  84431-3 0  9991
2 44400  97.6922 156.0415 0002058  27.1517 332.9858 15.82000981325135
Taurus 1
1 44530U 19059C   25132.87300119  .00007135  00000-0  13243-2 0  9993
2 44530  98.6040 270.9628 0010824 123.3872 236.8367 14.65499654299884
Duchifat 3
1 44854U 19089C   25132.45532426  .00042034  00000-0  88735-3 0  9993
2 44854  36.9424 173.7005 0000469 104.2525 255.8283 15.44241389298661
TO-108
1 44881U 19093C   25132.80947135  .00001019  00000-0  12398-3 0  9994
2 44881  97.7928 209.0397 0012904 327.9938  32.0493 14.85544502291951
FloripaSat 1
1 44885U 19093G   25132.83302723  .00005389  00000-0  45903-3 0  9991
2 44885  97.8147 220.3840 0009614 297.5018  62.5227 14.98165436292596
RS-44
1 44909U 19096E   25132.80023417  .00000006  00000-0 -18672-4 0  9994
2 44909  82.5218 245.7323 0217337   0.8419 359.3005 12.79740373251180
UPMSat 2
1 46276U 20061E   25132.77780700  .00056028  00000-0  56682-3 0  9994
2 46276  97.2457 206.2999 0001400 158.7911 201.3407 15.65130883261113
SALSAT
1 46495U 20068K   25132.48734430  .00007757  00000-0  33913-3 0  9998
2 46495  97.8588 109.2299 0009507 258.0132 102.0037 15.22349158254250
CubeSX-Sirius-HSE
1 47951U 21022V   25132.77452214  .00332049  00000-0  13724-2 0  9998
2 47951  97.4147  44.7407 0007551  96.2759 263.9372 15.84994241229431
CubeSX-HSE
1 47952U 21022W   25132.78802856  .00311499  00000-0  12638-2 0  9990
2 47952  97.4161  45.0154 0006888  96.1480 264.0575 15.85438594229457
GRBAlpha
1 47959U 21022AD  25132.77490596  .00276558  00000-0  11992-2 0  9998
2 47959  97.4154  45.0860 0007065  94.9272 265.2804 15.84119065228278
TUBIN
1 48900U 21059X   25132.80883984  .00044759  00000-0  59435-3 0  9997
2 48900  97.6734 299.8347 0002301 333.5503  26.5634 15.58101297215710
LEDSAT
1 49069U 21073D   25132.64010081  .00063685  00000-0  87183-3 0  9992
2 49069  97.3905 213.0877 0011836 177.1484 182.9841 15.57121075207086
CUTE
1 49263U 21088D   25132.46891964  .00017111  00000-0  35282-3 0  9997
2 49263  97.4522 207.9298 0007297 352.8128   7.3015 15.45935218200085
TeikyoSat 4
1 49396U 21102B   25132.67427538  .00001942  00000-0  13170-3 0  9993
2 49396  97.4116 172.1088 0011435 223.6581 136.3744 15.07518756192341
Z-Sat
1 49399U 21102E   25132.86521296  .00004838  00000-0  26780-3 0  9991
2 49399  97.3820 175.2197 0017867 194.8572 165.2138 15.14167617192784
KOSEN 1
1 49402U 21102H   25132.62827801  .00006955  00000-0  32583-3 0  9991
2 49402  97.3726 178.1970 0016516 170.9227 189.2310 15.19897016193043
HO-113
1 50466U 21131B   25132.84352749  .00000541  00000-0  18296-3 0  9993
2 50466  98.5089 222.3346 0003709 202.5576 157.5450 14.40779675177451
IRIS-A
1 51044U 22002BN  25132.75515033  .00332865  42865-4  11181-2 0  9992
2 51044  97.3222 212.0391 0006771 233.0721 126.9932 15.90031311185468
Foresail-1
1 52766U 22057AL  25132.34386685  .00208818  00000-0  95893-3 0  9992
2 52766  97.6041 281.0996 0003242 282.3707  77.7199 15.83085845165414
SNUGLITE 2
1 52899U 22065F   25132.86254118  .00001273  00000-0  25680-3 0  9993
2 52899  98.1648 275.1132 0007418 190.6905 169.4140 14.63144410152430
IO-117
1 53106U 22080B   25051.21822557 -.00000003  00000-0  00000+0 0  9995
2 53106  70.1434 106.3440 0008542  48.0089 312.1297  6.42557744 61200
UmKA 1 (RS40S)
1 57172U 23091G   25132.87020417  .00005887  00000-0  31754-3 0  9990
2 57172  97.5599 188.3996 0016060  73.6841 286.6156 15.15039957103287
CubeBel-2 (EU11S)
1 57175U 23091K   25132.83827532  .00010412  00000-0  50274-3 0  9990
2 57175  97.5598 189.3510 0013831  82.5662 277.7143 15.18766224103346
VERONIKA
1 58261U 23174F   25132.80207213  .00100321  00000-0  10773-2 0  9992
2 58261  97.4140 217.4637 0006655 165.4762 194.6689 15.63428593 84339
ENSO
1 58470U 23185J   25132.89073368  .00048025  00000-0  76917-3 0  9992
2 58470  97.3755 207.1825 0008850 176.7992 183.3319 15.52925955 80733
EIRSAT-1
1 58472U 23185L   25132.88961204  .00085479  00000-0  96830-3 0  9998
2 58472  97.3719 208.6558 0007797 180.5947 179.5303 15.62092372 80836
SONATE-2
1 59112U 24043Q   25132.33856465  .00019121  00000-0  56691-3 0  9998
2 59112  97.5102 262.9772 0011201 209.4962 150.5651 15.34822032 66001
MO-122
1 60209U 24125G   25132.55422857  .00017802  00000-0  52134-3 0  9998
2 60209  97.2820 344.5031 0017834 234.3752 125.5831 15.35124027 47653
GRBBeta
1 60237U 24128C   25132.51819830  .00003487  00000-0  27102-3 0  9990
2 60237  61.9904 177.3801 0049657  51.0600 309.4901 15.02377298 45985
Curium One
1 60242U 24128H   25132.46620708  .00006122  00000-0  43621-3 0  9997
2 60242  61.9802 176.2498 0049569  46.6797 313.8410 15.04668985 46003
ROBUSTA-3A
1 60243U 24128J   25132.26101981  .00006656  00000-0  47895-3 0  9992
2 60243  61.9873 177.7034 0048061  44.3611 316.1315 15.04243841 45964
CatSat
1 60246U 24125J   25132.56989714  .00009689  00000-0  32932-3 0  9998
2 60246  97.2614 344.0433 0042923 191.7206 168.3040 15.29763903 45709
HYPERVIEW-1G (RS66S)
1 61772U 24199AP  25132.90440545  .00019533  00000-0  58691-3 0  9995
2 61772  97.3572   1.8380 0011888 294.2798  65.7203 15.34385068 72718
AO-123
1 61781U 24199AY  25132.88209477  .00006533  00000-0  24130-3 0  9996
2 61781  97.3583   0.9808 0014268 299.2986  60.6827 15.27986662 72652
ZIMSAT 2
1 61783U 24199BA  25132.91214696  .00033177  00000-0  86387-3 0  9997
2 61783  97.3555   2.2667 0011750 290.8067  69.1919 15.38746311 75893
HADES-R (SO-124)
1 62690U 25009CK  25132.45360649  .00039780  00000-0  14874-2 0  9992
2 62690  97.4098 213.4107 0004523 174.8060 185.3227 15.27214797 17854
HYDRA-T
1 62692U 25009CM  25132.18123822  .00040238  00000-0  14958-2 0  9997
2 62692  97.4100 213.1615 0004399 172.0426 188.0883 15.27405079 17817
JINJUSat 1B
1 63210U 25052A   25132.68898055  .00010964  00000-0  51141-3 0  9993
2 63210  97.4454  27.1747 0006358  70.5948 289.5973 15.20012613  9014
NUSHSAT 1
1 63211U 25052B   25132.68739544  .00012344  00000-0  57267-3 0  9990
2 63211  97.4445  27.1701 0006474  74.4011 285.7938 15.20168328  9012
TEVEL2-4
1 63213U 25052D   25132.49831363  .00011945  00000-0  55874-3 0  9991
2 63213  97.4363  26.9032 0005716  87.4541 272.7349 15.19896390  8989
TEVEL2-5
1 63214U 25052E   25132.43276890  .00013639  00000-0  63763-3 0  9992
2 63214  97.4365  26.8380 0005721  87.5356 272.6534 15.19882805  8978
TEVEL2-6
1 63215U 25052F   25132.69751880  .00012049  00000-0  56434-3 0  9999
2 63215  97.4363  27.0966 0005789  87.2454 272.9444 15.19848603  9017
TEVEL2-1
1 63217U 25052H   25132.44134910  .00013960  00000-0  65710-3 0  9993
2 63217  97.4343  26.8091 0005930  96.9068 263.2841 15.19639585  8974
TEVEL2-2
1 63218U 25052J   25132.90254960  .00011760  00000-0  55411-3 0  9996
2 63218  97.4339  27.2633 0005995  96.3757 263.8161 15.19645245  9047
TEVEL2-3
1 63219U 25052K   25132.90259118  .00011654  00000-0  54922-3 0  9995
2 63219  97.4339  27.2630 0005972  96.2122 263.9793 15.19641750  9044
TEVEL2-8
1 63237U 25052AD  25132.68278283  .00010947  00000-0  53357-3 0  9999
2 63237  97.4398  26.9931 0010393 108.1393 252.0974 15.18455852  9006
TEVEL2-9
1 63238U 25052AE  25132.22282124  .00012733  00000-0  62099-3 0  9997
2 63238  97.4406  26.5388 0010449 109.5041 250.7323 15.18398026  8939
TEVEL2-7
1 63239U 25052AF  25132.68544279  .00010807  00000-0  52808-3 0  9997
2 63239  97.4400  26.9902 0010489 108.6455 251.5919 15.18370896  9007
HYDRA-W
1 63490U 25052BL  25132.67850770  .00025688  00000-0  11302-2 0  9997
2 63490  97.4352  27.1157 0014758 107.4518 252.8333 15.21749720  9012
HADES-ICM
1 63492U 25052BN  25132.42332809  .00029179  00000-0  12962-2 0  9992
2 63492  97.4362  26.8485 0015053 111.4952 248.7890 15.21389802  8978
